Hourly Data Report for March 23, 2020

MAYO A
YUKON TERRITORY
Current Station Operator: NAVCAN

63°36'59.000" N
135°52'06.000" W
503.80 m
2100701
71965
YMA

Download Data

Hourly Data (March 2020)
Hourly Data Report for March 23, 2020
TIME
LST
Temp Definition
°C
Dew Point Definition
°C
Rel Hum Definition
%
Precip. Amount Definition
mm

Wind Dir Definition
10's deg

Wind Spd Definition
km/h
Visibility Definition
km
Stn Press Definition
kPa
Hmdx Definition


Wind Chill Definition


Weather Definition


00:00 -8.9 -15.2 61   28 11 32.2 96.39   -14 LegendNANA
01:00 -10.3 -15.9 64   20 3 32.2 96.45   -12 Mainly Clear
02:00 -12.4 -16.9 70   19 4 32.2 96.53   -15 LegendNANA
03:00 -14.6 -17.9 76   20 7 32.2 96.59   -19 LegendNANA
04:00 -16.2 -20.0 72   26 4 32.2 96.67   -19 Mainly Clear
05:00 -16.5 -19.2 79   21 7 32.2 96.70   -22 LegendNANA
06:00 -17.6 -20.2 80   27 9 32.2 96.72   -24 LegendNANA
07:00 -20.5 -22.6 83   1 3 32.2 96.78   -23 Clear
08:00 -20.5 -22.5 84   36 1 32.2 96.78   -21 LegendNANA
09:00 -18.0 -21.1 78   36 3 32.2 96.76   -20 LegendNANA
10:00 -10.6 -17.3 58   20 9 32.2 96.71   -16 Mostly Cloudy
11:00 -8.9 -17.2 51   22 11 32.2 96.67   -14 LegendNANA
12:00 -7.8 -17.4 47   25 14 32.2 96.59   -14 LegendNANA
13:00 -7.1 -16.7 47   21 16 32.2 96.51   -13 Cloudy
14:00 -6.7 -16.4 46   22 11 24.1 96.47   -12 LegendNANA
15:00 -5.9 -15.1 49   24 14 24.1 96.39   -11 LegendNANA
16:00 -5.9 -14.5 51   26 16 19.3 96.34   -12 Clear
17:00 -6.1 -13.1 58   23 13 20.9 96.28   -11 LegendNANA
18:00 -5.7 -12.7 58   21 11 24.1 96.19   -10 LegendNANA
19:00 -5.5 -12.2 59   22 7 24.1 96.13   -9 Cloudy
20:00 -5.5 -12.1 60   26 7 32.2 96.07   -9 LegendNANA
21:00 -6.8 -11.7 68   36 2 32.2 96.06   -8 LegendNANA
22:00 -7.6 -11.6 73   36 2 16.1 96.02   -9 Cloudy
23:00 -8.4 -11.7 77   30 3 32.2 95.99   -10 LegendNANA

Notes on Data Quality.

Legend

  • E = Estimated
  • M = Missing
  • NA = Not Available*
  • [empty] = Indicates an unobserved value
Date modified: